Etusivu
METAR-TAF:

METAR-TAF

Lentoasemat :

Whitecourt, Alberta, Kanada

Leveyspiiri: 54-09N, Pituuspiiri: 115-47W, korkeus merenpinnasta: 783 m

Tämänhetkinen sää

Tämä raportti tehtiin 55 minuuttia sitten, kello 13.00 UTC
Tuuli 6 kn lännestä/lounaasta
Lämpötila -2°C
Kosteus 50%
Ilmanpaine 1023 hPa
Näkyvyys: 24.1 km
Muutamia pilviä 11000 ft:n korkeudessa

METAR: CYZU 251300Z 24006KT 15SM FEW110 M02/M11 A3021 RMK AC1 SLP265

Aika: 07:55 (13:55 UTC)

Sääennuste

Tämä raportti tehtiin 16 tuntia ja 18 minuuttia sitten, kello 21.37 UTC
Ennuste voimassa 24. päivästä klo 21 UTC - 24. päivään klo 23 UTC
Tuuli 20 kn lännestä/luoteesta puuskistuen 30 kn:hen
Näkyvyys: 10 km
Hajonneita pilviä 7000 ft:n korkeudessa
sadekuuroja näköpiirissä

TAF: CYZU 242137Z 2421/2423 29020G30KT P6SM VCSH BKN070 RMK NXT FCST WILL BE ISSUED AT 251415Z

Säähavainnot ja -ennusteet yli 4000 lentoasemalta (METAR- ja TAF-raportit).

Käytössä olevat sääasemat on merkitty karttaan keltaisilla ja punaisilla pisteillä.

Aseta hiiri pisteen päälle nähdäksesi sääaseman nimen.

Klikkaa sitten nähdäksesi säähavainnot ja -ennusteet.

Kartan vaihtaminen: klikkaa mustalla rastilla varustettuja vihreitä pisteitä, niin voit zoomata sisään; viivalla varustettua vihreää pistettä, niin voit zoomata ulos tai vihreitä nuolia, niin pääset viereisille kartoille.


METAR-TAF: